7 * 24
多渠道服务支持
STARLINK-36922(NORAD编号68123)是SpaceX星链(Starlink)低轨互联网星座中的一颗卫星,属于Starlink大规模星座部署计划的组成部分。 作为星链星座的一员,它运行在近地轨道,采用Ku/Ka频段提供卫星互联网服务,旨在为全球偏远地区、海洋、航空等场景提供高速低延迟的网络连接,填补全球网络覆盖空白。 2026年SpaceX启动降轨计划,将数千颗星链卫星轨道高度从550公里降至480公里,STARLINK-36922也大概率在此计划中,降轨后可缩短故障卫星再入大气层时间,降低太空碎片碰撞风险,提升太空运行安全性。
美国
(US)
| 数据来源 | 国际轨道数据 |
| 星历时间: | 2026-09-12T03:56:37+0800 8小时前 查看轨道信息 |
| 半长轴: | 6843.688km |
| 偏心率: | 0.0001982 |
| 轨道倾角: | 97.286° |
| 近地点辐角 | 87.292° |
| 升交点赤经 | 213.972° |
| 平近点角 | 272.855° |
| 近地点: | 464.194km |
| 远地点: | 466.908km |
| 周期: | 93.906分钟 |
| 每日圈数: | 15.334424 |